This is the latest recevied weather packets stored in our database for station/object W7PLC. If no packets are shown the sender has not sent any weather packets the latest 10 day(s).
| Time | Temp. | Humidity | Pressure | Rain* | Wind** | Luminosity | Snow |
|---|---|---|---|---|---|---|---|
| 1777502730 | 22.22° C | 49% | 1020.5 hPa | 0 mm | - | 662 W/m² | - |
| 1777502426 | 22.78° C | 49% | 1020.5 hPa | 0 mm | - | 661 W/m² | - |
| 1777502123 | 22.22° C | 48% | 1020.7 hPa | 0 mm | - | 675 W/m² | - |
| 1777501822 | 21.67° C | 50% | 1020.7 hPa | 0 mm | - | 653 W/m² | - |
| 1777501518 | 22.78° C | 48% | 1020.8 hPa | 0 mm | - | 640 W/m² | - |
| 1777501215 | 22.78° C | 48% | 1020.8 hPa | 0 mm | - | 664 W/m² | - |
| 1777500913 | 21.67° C | 51% | 1020.9 hPa | 0 mm | - | 726 W/m² | - |
| 1777500610 | 22.22° C | 50% | 1020.9 hPa | 0 mm | - | 730 W/m² | - |
| 1777500306 | 22.22° C | 50% | 1021.1 hPa | 0 mm | - | 706 W/m² | - |
| 1777500003 | 21.11° C | 51% | 1021.1 hPa | 0 mm | - | 679 W/m² | - |
| 1777499699 | 21.11° C | 51% | 1021.2 hPa | 0 mm | - | 622 W/m² | - |
| 1777499396 | 21.11° C | 51% | 1021.1 hPa | 0 mm | - | 514 W/m² | - |
| 1777499095 | 21.11° C | 51% | 1021.1 hPa | 0 mm | - | 583 W/m² | - |
| 1777498791 | 20.56° C | 54% | 1021.1 hPa | 0 mm | - | 667 W/m² | - |
| 1777498487 | 21.11° C | 50% | 1021.2 hPa | 0 mm | - | 645 W/m² | - |
| 1777498183 | 21.67° C | 50% | 1021.4 hPa | 0 mm | - | 569 W/m² | - |
| 1777497882 | 21.11° C | 51% | 1021.3 hPa | 0 mm | - | 595 W/m² | - |
| 1777497577 | 20.56° C | 52% | 1021.2 hPa | 0 mm | - | 642 W/m² | - |
| 1777497274 | 20° C | 53% | 1021.4 hPa | 0 mm | - | 551 W/m² | - |
| 1777496970 | 20.56° C | 53% | 1021.6 hPa | 0 mm | - | 592 W/m² | - |
| 1777496668 | 20° C | 53% | 1021.6 hPa | 0 mm | - | 633 W/m² | - |
| 1777496364 | 20° C | 52% | 1021.5 hPa | 0 mm | - | 643 W/m² | - |
| 1777496060 | 20.56° C | 52% | 1021.7 hPa | 0 mm | - | 654 W/m² | - |
| 1777495756 | 21.11° C | 52% | 1021.7 hPa | 0 mm | - | 682 W/m² | - |
| 1777495452 | 21.11° C | 52% | 1021.6 hPa | 0 mm | - | 703 W/m² | - |
* Rain latest hour (hover to see other rain measurements)
** Current wind speed in m/s (hover to see current wind gust speed)